Location: El Álamo
(40.2307°N, 3.9945°W)
Time: 16:09:19
(UTC+00:00)

Cosmos 1782 - Pass Details

Date: 19 May 2025
Orbit: 478 x 489 km, 82.5° (Epoch: 23 June)

Event Time Altitude Azimuth Distance (km) Brightness Sun altitude
Rises 20:18:28 0° 185° (S) 2,555 5.9 -8.9°
Reaches altitude 10° 20:20:34 10° 185° (S) 1,677 5.0 -9.2°
Maximum altitude 20:24:14 87° 95° (E) 497 2.5 -9.8°
Drops below altitude 10° 20:27:56 10° 8° (N) 1,686 5.7 -10.3°
Sets 20:30:03 0° 8° (N) 2,570 6.7 -10.6°
